Location: Gumpelstadt
(50.8386°N, 10.2918°E)
Time: 12:21:46
(UTC+00:00)

Daily predictions for brighter satellites

Satellite Brightness Start Highest point End
(mag) Time Altitude Azimuth Time Altitude Azimuth Time Altitude Azimuth
NOSS 3-2 (A) 3.3 15:43:02 10° SSW 15:48:02 71° SE 15:54:07 10° NE
NOSS 3-2 (C) 4.0 15:45:29 10° S 15:49:57 32° ESE 15:55:07 10° NE
Cosmos 1656 3.9 15:44:50 10° S 15:50:18 56° ESE 15:55:52 10° NE
SL-08 ROCKET BODY 4.5 15:44:43 10° N 15:50:36 59° ENE 15:56:32 10° SSE
Cosmos 1758 Rocket 3.6 15:47:09 10° N 15:51:25 56° ENE 15:55:37 10° SSE
Cosmos 2208 Rocket 4.0 15:48:12 10° NNW 15:53:24 83° ENE 15:58:36 10° SSE
Cosmos 2098 Rocket 3.6 15:50:44 10° SSE 15:54:44 41° E 15:59:24 10° NNE
NOSS 2-2 (E) 3.1 15:52:20 10° SSW 15:55:35 50° SE 15:58:31 10° NE
Cosmos 724 4.4 15:50:49 10° NW 15:56:56 84° NE 16:02:52 10° SE
Meteor 1-20 Rocket 4.4 15:52:49 10° N 15:58:06 45° ENE 16:03:19 10° SE
CZ-4C R/B 2.9 15:53:03 10° NW 15:59:44 76° NE 16:08:12 10° SE
Cosmos 2266 Rocket 4.2 15:55:10 10° N 16:01:06 46° ENE 16:06:54 10° SE
Cosmos 405 Rocket 2.6 15:59:38 10° NNW 16:02:54 68° W 16:06:04 10° S
CBERS-1 4.0 15:59:58 10° SSE 16:05:03 80° ENE 16:10:12 10° NNW
SMAP 3.3 16:02:02 10° SE 16:06:30 49° ENE 16:11:00 10° N
Cosmos 2297 Rocket 2.3 16:03:19 10° NNW 16:09:02 88° WSW 16:14:42 10° SSE
Landsat 7 4.1 16:06:58 10° SE 16:11:20 43° ENE 16:15:45 10° N
[s.n.66845] 3.8 16:12:15 10° NNE 16:12:44 11° NE 16:12:44 11° NE
[s.n.66847] 3.8 16:12:39 10° NNE 16:13:11 11° NE 16:13:11 11° NE
Cosmos 1626 Rocket 3.7 16:09:24 10° NNW 16:13:44 76° W 16:18:01 10° S
[s.n.66846] 3.8 16:13:03 10° NNE 16:13:36 11° NE 16:13:36 11° NE
[s.n.66843] 3.8 16:13:33 10° NNE 16:14:08 11° NE 16:14:08 11° NE
Meteor 1-28 Rocket 2.9 16:11:17 10° NNE 16:14:36 58° ESE 16:17:53 10° S
[s.n.66844] 3.8 16:13:58 10° NNE 16:14:35 11° NE 16:14:35 11° NE
[s.n.66842] 3.8 16:14:29 10° NNE 16:15:06 11° NNE 16:15:06 11° NNE
[s.n.66841] 3.8 16:14:54 10° NNE 16:15:33 11° NNE 16:15:33 11° NNE
[s.n.66840] 3.8 16:15:23 10° NNE 16:16:03 11° NNE 16:16:03 11° NNE
[s.n.66838] 3.8 16:15:50 10° NNE 16:16:31 11° NNE 16:16:31 11° NNE
NOSS 2-2 (C) 3.7 16:14:08 10° WSW 16:17:05 38° NW 16:19:48 11° NNE
[s.n.66839] 3.8 16:16:18 10° NNE 16:17:01 12° NNE 16:17:01 12° NNE
[s.n.66837] 3.8 16:16:44 10° NNE 16:17:28 12° NNE 16:17:28 12° NNE
[s.n.66836] 3.8 16:17:13 10° NNE 16:17:57 12° NNE 16:17:57 12° NNE
[s.n.66835] 3.8 16:17:42 10° NNE 16:18:27 12° NNE 16:18:27 12° NNE
[s.n.66834] 3.8 16:18:10 10° NNE 16:18:57 12° NNE 16:18:57 12° NNE
[s.n.66833] 3.8 16:18:36 10° NNE 16:19:22 12° NNE 16:19:22 12° NNE
[s.n.66832] 3.8 16:19:07 10° NNE 16:19:54 12° NNE 16:19:54 12° NNE
[s.n.66831] 3.7 16:19:31 10° NNE 16:20:19 12° NNE 16:20:19 12° NNE
[s.n.66830] 3.7 16:19:56 10° NNE 16:20:45 12° NNE 16:20:45 12° NNE
[s.n.66828] 3.7 16:20:20 10° NNE 16:21:11 12° NNE 16:21:11 12° NNE
[s.n.66829] 3.7 16:20:52 10° NNE 16:21:42 12° NNE 16:21:42 12° NNE
Cosmos 1315 Rocket 4.2 16:19:09 10° SW 16:22:43 37° WNW 16:26:19 10° N
[s.n.66827] 3.7 16:21:22 10° NNE 16:22:13 13° NNE 16:22:13 13° NNE
[s.n.66826] 3.7 16:21:51 10° NNE 16:22:43 13° NNE 16:22:43 13° NNE
[s.n.66825] 3.7 16:22:17 10° N 16:23:09 13° NNE 16:23:09 13° NNE
Cosmos 1606 Rocket 4.3 16:20:05 10° SSE 16:24:02 33° E 16:28:00 10° NNE
[s.n.66824] 3.7 16:22:48 10° N 16:23:40 13° NNE 16:23:40 13° NNE
[s.n.66823] 3.7 16:23:18 10° N 16:24:10 13° NNE 16:24:10 13° NNE
[s.n.66822] 3.7 16:23:46 10° N 16:24:39 13° NNE 16:24:39 13° NNE
ATLAS CENTAUR R/B 3.4 16:22:42 10° WNW 16:25:24 24° WSW 16:28:01 10° S
[s.n.66821] 3.7 16:24:12 10° N 16:25:07 13° NNE 16:25:07 13° NNE
Thor Agena Rocket 3.6 16:22:17 10° SSE 16:27:30 89° ENE 16:32:40 10° NNW
Cosmos 1503 Rocket 4.1 16:23:21 10° S 16:28:28 57° ESE 16:33:32 10° NNE
Cosmos 2219 3.9 16:23:37 10° NNW 16:28:47 33° NE 16:33:56 10° ESE
CENTAUR R/B 3.3 16:24:14 10° WSW 16:30:05 47° NNW 16:36:57 12° NE
Cosmos 1484 Rocket 3.8 16:28:51 10° S 16:32:13 45° W 16:35:36 10° NNW
USA 290 3.5 16:29:39 10° NW 16:32:49 46° WSW 16:35:56 10° S
SL-16 R/B 2.7 16:26:42 10° NNE 16:32:57 82° WNW 16:39:09 10° SSW
Cosmos 1544 Rocket 3.8 16:28:48 10° SSW 16:33:12 73° WNW 16:37:39 10° N
GEOS 3 Rocket 3.9 16:28:50 13° NE 16:33:32 57° SE 16:38:48 10° SSW
AQUARIUS 4.2 16:30:13 10° SE 16:34:28 51° ENE 16:38:46 10° N
Cosmos 1980 Rocket 3.3 16:31:08 10° SSE 16:35:28 23° ESE 16:37:57 17° ENE
Lacrosse 5 rocket 2.0 16:32:02 10° W 16:35:30 35° NNW 16:37:41 18° NE
Cosmos 1844 Rocket 4.1 16:31:50 10° N 16:35:38 18° NNE 16:37:19 16° NE
Cosmos 1354 Rocket 4.3 16:33:03 10° S 16:38:05 49° ESE 16:42:34 13° NE
Meteor 1-25 Rocket 4.2 16:32:54 10° N 16:38:45 73° ENE 16:44:30 10° SSE
Meteor 1-5 Rocket 4.3 16:33:38 10° N 16:38:50 49° ENE 16:44:06 10° SSE
Lacrosse 4 Rocket 3.4 16:37:26 10° W 16:40:22 19° NW 16:43:17 10° N
BREEZE M DEB (TANK) 3.2 16:38:31 10° SW 16:40:32 23° SSE 16:41:17 19° SE
CORIOLIS 4.3 16:36:24 10° SSE 16:41:44 81° WSW 16:47:07 10° NNW
IRIDIUM 104 4.3 16:38:12 10° N 16:43:28 87° E 16:48:42 10° S
Cosmos 2263 Rocket 2.3 16:38:26 10° NNW 16:43:59 52° NE 16:49:32 10° SE
Cosmos 1777 Rocket 4.0 16:39:23 10° SSW 16:44:39 86° ESE 16:49:52 10° NNE
Cosmos 1726 Rocket 4.0 16:43:32 10° SSE 16:47:55 43° E 16:51:54 12° NNE
CZ-2D R/B 2.6 16:45:17 10° SSE 16:48:25 80° ENE 16:51:35 10° NNW
USA 238 DEB 4.3 16:45:18 10° S 16:50:36 32° ESE 16:53:47 21° ENE
USA 238 4.3 16:45:26 10° S 16:50:43 32° ESE 16:53:52 21° ENE
Okean 1-7 Rocket 3.6 16:46:22 10° NNW 16:50:47 85° W 16:55:08 10° S
IRIDIUM 114 4.4 16:47:22 10° N 16:52:37 80° W 16:57:49 10° S
NOSS 3 (A) 4.4 16:50:28 10° NNW 16:52:32 43° NE 16:52:32 43° NE
Cosmos 1602 Rocket 4.2 16:48:21 10° NNW 16:52:40 57° W 16:56:55 10° S
ERS-1 4.4 16:48:59 10° SSE 16:53:59 82° ENE 16:58:59 10° NNW
Cosmos 1461 2.7 16:52:23 10° SW 16:56:17 85° NW 16:58:30 25° NE
Cosmos 1933 3.1 16:54:09 10° S 16:57:59 76° E 17:01:21 13° NNE
USA 215 3.6 16:53:49 20° ENE 16:58:12 52° N 17:04:32 10° WNW
IRS-1C 4.3 16:54:23 10° SSE 16:59:43 79° WSW 17:05:05 10° NNW
Cosmos 2227 Rocket 2.3 16:54:47 10° NNW 17:00:28 81° WSW 17:06:06 10° SSE
YAOGAN 1 3.0 16:56:34 10° SE 17:00:29 37° ENE 17:04:25 10° N
SKYMED 2 4.1 16:58:49 26° NE 17:00:31 35° E 17:04:31 10° SSE
Cosmos-2242 4.0 16:57:12 10° SE 17:00:12 25° E 17:00:12 25° E
BREEZE-M DEB (TANK) 4.4 16:59:19 10° SSW 17:01:37 15° SSE 17:02:20 14° SE
NOSS 2-3 (E) 3.7 16:59:23 10° SSW 17:02:48 39° SE 17:03:39 34° E
NOSS 2-3 (D) 3.8 17:00:04 10° SSW 17:03:29 37° SE 17:04:14 33° E
SJ-12 4.0 17:00:49 10° S 17:04:34 70° WSW 17:08:22 10° NNW
Cosmos 2369 Rocket 4.4 17:02:19 10° WNW 17:05:26 15° NNW 17:08:36 10° N
Cosmos 2151 4.3 17:02:48 10° NNW 17:06:44 41° W 17:10:38 10° SSW
Cosmos 1655 Rocket 3.9 17:06:27 10° N 17:12:43 80° ENE 17:18:56 10° SSE
Meteor 2-10 4.1 17:08:37 10° N 17:13:55 60° ENE 17:19:22 10° SSE
Cosmos 1697 Rocket 2.6 17:09:48 10° SSW 17:15:25 86° ESE 17:19:15 21° NNE
Cosmos 990 Rocket 3.8 17:10:35 10° SSW 17:15:42 82° ESE 17:19:09 22° NNE
CZ-4 R/B 4.2 17:12:03 10° SSE 17:15:58 77° ENE 17:19:56 10° N
Cosmos 1953 Rocket 3.4 17:12:06 10° N 17:16:34 79° ENE 17:21:01 10° SSE
MOS 1 Rocket 3.7 17:12:24 10° S 17:17:20 73° WSW 17:22:34 10° NNW
Aureole 1 Rocket 3.7 17:13:46 10° S 17:18:04 44° ESE 17:19:38 34° ENE
ARIANE 5 R/B 3.5 17:19:53 10° S 17:24:46 48° W 17:29:46 10° NNW
Cosmos 1825 Rocket 4.4 17:21:36 10° NNW 17:25:50 51° W 17:30:01 10° S
Resurs 01 Rocket 3.9 17:29:46 12° N 17:29:46 12° N 17:30:08 10° N
COSMOS 2455 4.4 17:27:27 10° SSE 17:29:38 17° SE 17:29:38 17° SE
Cosmos 1680 Rocket 3.9 17:27:10 10° NNW 17:31:45 39° NE 17:31:45 39° NE
NOAA 6 4.0 17:27:10 10° SE 17:32:09 56° ENE 17:37:09 10° N
USA 81 3.9 17:28:18 10° N 17:33:37 81° E 17:38:53 10° S
CZ-2D R/B 3.4 17:31:47 10° SSE 17:35:59 86° WSW 17:40:09 10° NNW
Radarsat Rocket 4.5 17:29:31 10° SSE 17:37:36 79° ENE 17:44:48 10° NNW
IRAS Rocket 4.1 17:33:02 10° SSE 17:38:29 75° ENE 17:43:59 10° NNW
NOSS 3-2 (A) 4.3 17:34:14 10° W 17:39:18 38° NNW 17:42:25 24° NNE
Gbstr 26 Del rocket 2.7 17:35:47 10° WSW 17:39:37 65° S 17:39:37 65° S
Meteor 2-2 Rocket 4.2 17:34:24 10° S 17:39:55 58° E 17:41:51 38° NE
NOSS 3-2 (C) 3.6 17:35:10 10° WSW 17:40:21 59° NW 17:43:16 30° NNE
SPOT 1/Viking Rocket 3.8 17:36:32 10° S 17:41:43 69° WSW 17:46:56 10° NNW
PSLV R/B 3.2 17:43:07 66° SSE 17:43:38 83° ENE 17:47:43 10° NNW
Cosmos 1076 Rocket 4.3 17:39:44 10° NNW 17:43:55 51° W 17:48:05 10° S
SL-19 R/B 4.1 17:41:52 10° SSE 17:47:17 87° ENE 17:53:02 10° NNW
Cosmos 2082 3.6 17:42:02 10° NNW 17:47:47 80° ENE 17:50:41 31° SE
CZ-4C R/B 4.4 17:41:30 10° NW 17:47:59 37° WSW 17:55:40 10° S
COSMO-SKYMED 1 2.9 17:49:13 47° S 17:49:13 47° S 17:52:15 10° S
Cosmos 2058 Rocket 2.9 17:45:52 10° S 17:50:20 86° E 17:50:45 73° NNE
Meteor 2-11 Rocket 4.3 17:53:51 10° N 18:00:02 71° ENE 18:06:10 10° SSE
Nadezhda 2 Rocket 4.3 17:55:35 10° N 18:01:45 89° W 18:07:51 10° S
Meteor 1-26 Rocket 4.0 17:58:52 10° S 18:04:17 89° E 18:05:34 54° NNE
Cosmos 1553 Rocket 3.8 18:05:26 10° S 18:11:36 85° E 18:14:51 31° NNE
Resurs 1-3 4.5 18:08:28 10° S 18:12:37 47° W 18:16:48 10° NNW
Lacrosse 5 rocket 3.3 18:09:48 10° WNW 18:11:16 20° NW 18:11:16 20° NW
Cosmos 2219 3.7 18:07:37 10° NW 18:13:16 59° WSW 18:17:57 15° S
Cosmos 1980 Rocket 2.3 18:13:17 10° SW 18:18:54 71° WNW 18:19:44 61° N
Cosmos 1844 Rocket 3.4 18:15:06 10° NNW 18:18:59 42° N 18:18:59 42° N
USA 281 4.3 18:22:44 29° NNE 18:22:44 29° NNE 18:26:35 10° NNW
CENTAUR R/B 4.0 18:16:28 10° WNW 18:22:31 32° N 18:24:02 30° NNE
Cosmos 1745 Rocket 4.2 18:19:56 10° N 18:24:48 56° N 18:24:48 56° N
Cosmos 2263 Rocket 3.8 18:22:40 10° NW 18:27:41 33° WSW 18:32:41 10° SSW
Cosmos 1898 Rocket 3.9 18:25:48 10° SSW 18:30:11 59° WSW 18:30:11 59° WSW
Cosmos 2369 4.0 18:26:06 10° SSW 18:30:41 59° SSW 18:30:41 59° SSW
USA 215 3.3 18:41:10 69° N 18:41:10 69° N 18:47:21 10° WNW
USA 238 DEB 3.6 18:34:47 10° SW 18:40:59 70° NW 18:41:14 69° NNW
USA 238 3.6 18:34:53 10° SW 18:41:06 70° NW 18:41:19 70° NNW
Cosmos 1697 Rocket 4.5 18:55:35 10° W 19:00:05 24° NW 19:00:59 23° NNW
